Weather History for KARV - March, 2012

Change the Weather History Date:

Sunday, March 25, 2012

  Actual Average Record
Temperature  
Mean Temperature 46 °F -  
Max Temperature 55 °F 40 °F 64 °F (1925)
Min Temperature 35 °F 15 °F -21 °F (1974)
Degree Days  
Heating Degree Days 19    
Moisture  
Dew Point 33 °F    
Average Humidity 69    
Maximum Humidity 94    
Minimum Humidity 30    
Precipitation  
Precipitation 0.00 in - - ()
Sea Level Pressure  
Sea Level Pressure 30.10 in    
Wind  
Wind Speed 11 mph (NNW)    
Max Wind Speed 17 mph    
Max Gust Speed 23 mph    
Visibility 10 miles    
Events      
Averages and records for this station are not official NWS values.
T = Trace of Precipitation, MM = Missing Value Source: NWS Daily Summary

Daily Weather History Graph

Daily Weather History Graph

Search for Another Location

Airport or City:

Trip Planner

Search our weather history database for the weather conditions in past years. The results will help you decide how hot, cold, wet, or windy it might be!

Date:

Astronomy

Mar. 25, 2012 Rise Set
Actual Time 6:51 AM CDT 7:18 PM CDT
Civil Twilight 6:21 AM CDT 7:48 PM CDT
Nautical Twilight 5:46 AM CDT 8:24 PM CDT
Astronomical Twilight 5:09 AM CDT 9:00 PM CDT
Moon 7:52 AM CDT (3/25) 10:48 PM CDT (3/25)
Length of Visible Light 13h 27m
Length of Day
12h 27m
Waxing Crescent, 9% of the Moon is Illuminated
Mar 25
Waxing Crescent
Mar 30
First Quarter
Apr 6
Full
Apr 13
Last Quarter
Apr 21
New

Hourly Weather History & Observations

Time (CDT) Temp. Windchill Dew Point Humidity Pressure Visibility Wind Dir Wind Speed Gust Speed Precip Events Conditions
12:15 AM 51.8 °F - 50.0 °F 94% 29.98 in 10.0 mi NW 6.9 mph - N/A   Clear
12:35 AM 55.4 °F - 51.8 °F 88% 29.98 in 10.0 mi NNW 12.7 mph 17.3 mph N/A   Scattered Clouds
12:55 AM 55.4 °F - 51.8 °F 88% 29.99 in 10.0 mi NNW 8.1 mph - N/A   Mostly Cloudy
1:15 AM 53.6 °F - 50.0 °F 88% 29.99 in 10.0 mi NNW 8.1 mph - N/A   Overcast
1:35 AM 53.6 °F - 48.2 °F 82% 30.00 in 10.0 mi NNW 9.2 mph 17.3 mph N/A   Overcast
1:55 AM 51.8 °F - 46.4 °F 82% 30.01 in 10.0 mi NNW 10.4 mph - N/A   Overcast
2:15 AM 51.8 °F - 46.4 °F 82% 30.00 in 10.0 mi NNW 9.2 mph - N/A   Mostly Cloudy
2:35 AM 50.0 °F - 44.6 °F 82% 30.01 in 10.0 mi NW 12.7 mph 16.1 mph N/A   Mostly Cloudy
2:55 AM 44.6 °F 38.1 °F 41.0 °F 87% 30.01 in 10.0 mi NNW 13.8 mph 18.4 mph N/A   Scattered Clouds
3:15 AM 44.6 °F 38.1 °F 39.2 °F 81% 30.02 in 10.0 mi North 13.8 mph - N/A   Scattered Clouds
3:35 AM 42.8 °F 35.4 °F 37.4 °F 81% 30.02 in 10.0 mi North 15.0 mph 21.9 mph N/A   Mostly Cloudy
3:55 AM 42.8 °F 36.2 °F 37.4 °F 81% 30.03 in 10.0 mi NNW 12.7 mph - N/A   Overcast
4:15 AM 41.0 °F 33.5 °F 37.4 °F 87% 30.04 in 10.0 mi NNW 13.8 mph 18.4 mph N/A   Overcast
4:35 AM 41.0 °F 34.3 °F 37.4 °F 87% 30.04 in 10.0 mi NNW 11.5 mph - N/A   Overcast
4:55 AM 41.0 °F 33.5 °F 37.4 °F 87% 30.04 in 10.0 mi North 13.8 mph - N/A   Overcast
5:15 AM 41.0 °F 33.5 °F 37.4 °F 87% 30.04 in 10.0 mi North 13.8 mph - N/A   Overcast
5:35 AM 39.2 °F 33.6 °F 35.6 °F 87% 30.05 in 10.0 mi NNW 8.1 mph - N/A   Overcast
5:55 AM 37.4 °F 30.8 °F 33.8 °F 87% 30.06 in 10.0 mi NNW 9.2 mph - N/A   Overcast
6:15 AM 37.4 °F 30.3 °F 35.6 °F 93% 30.06 in 10.0 mi North 10.4 mph - N/A   Overcast
6:35 AM 37.4 °F 32.8 °F 35.6 °F 93% 30.06 in 10.0 mi NNW 5.8 mph - N/A   Overcast
6:55 AM 37.4 °F 30.8 °F 35.6 °F 93% 30.07 in 10.0 mi NNW 9.2 mph - N/A   Overcast
7:15 AM 37.4 °F 30.3 °F 35.6 °F 93% 30.08 in 10.0 mi NW 10.4 mph - N/A   Overcast
7:35 AM 37.4 °F 30.3 °F 33.8 °F 87% 30.09 in 10.0 mi NNW 10.4 mph - N/A   Overcast
7:55 AM 37.4 °F 29.3 °F 33.8 °F 87% 30.09 in 10.0 mi NNW 12.7 mph - N/A   Overcast
8:15 AM 37.4 °F 30.8 °F 33.8 °F 87% 30.10 in 10.0 mi North 9.2 mph - N/A   Overcast
8:35 AM 37.4 °F 29.8 °F 33.8 °F 87% 30.10 in 10.0 mi North 11.5 mph - N/A   Overcast
8:55 AM 37.4 °F 30.3 °F 33.8 °F 87% 30.10 in 10.0 mi North 10.4 mph - N/A   Overcast
9:15 AM 37.4 °F 29.3 °F 33.8 °F 87% 30.12 in 10.0 mi NNW 12.7 mph 16.1 mph N/A   Overcast
9:35 AM 37.4 °F 31.4 °F 32.0 °F 81% 30.12 in 10.0 mi North 8.1 mph - N/A   Overcast
9:55 AM 37.4 °F 30.3 °F 32.0 °F 81% 30.12 in 10.0 mi NNW 10.4 mph - N/A   Overcast
10:15 AM 41.0 °F 35.2 °F 33.8 °F 76% 30.13 in 10.0 mi North 9.2 mph - N/A   Mostly Cloudy
10:35 AM 41.0 °F 34.7 °F 32.0 °F 70% 30.13 in 10.0 mi NW 10.4 mph - N/A   Mostly Cloudy
11:15 AM 42.8 °F 35.8 °F 32.0 °F 66% 30.13 in 10.0 mi NNW 13.8 mph 17.3 mph N/A   Clear
11:35 AM 42.8 °F 37.5 °F 32.0 °F 66% 30.13 in 10.0 mi WNW 9.2 mph - N/A   Clear
11:55 AM 42.8 °F 38.0 °F 32.0 °F 66% 30.13 in 10.0 mi NNW 8.1 mph - N/A   Clear
12:15 PM 42.8 °F 36.6 °F 30.2 °F 61% 30.13 in 10.0 mi NNW 11.5 mph 16.1 mph N/A   Clear
12:35 PM 44.6 °F 38.8 °F 32.0 °F 61% 30.13 in 10.0 mi NNW 11.5 mph 16.1 mph N/A   Clear
12:55 PM 44.6 °F 38.4 °F 30.2 °F 57% 30.13 in 10.0 mi NNW 12.7 mph 17.3 mph N/A   Clear
1:15 PM 46.4 °F 40.7 °F 28.4 °F 50% 30.13 in 10.0 mi NNW 12.7 mph 17.3 mph N/A   Clear
1:35 PM 48.2 °F - 28.4 °F 46% 30.13 in 10.0 mi NNW 12.7 mph 20.7 mph N/A   Clear
1:55 PM 48.2 °F - 28.4 °F 46% 30.13 in 10.0 mi NNW 10.4 mph 19.6 mph N/A   Clear
2:15 PM 51.8 °F - 28.4 °F 41% 30.13 in 10.0 mi NNW 12.7 mph 18.4 mph N/A   Clear
2:35 PM 51.8 °F - 26.6 °F 38% 30.13 in 10.0 mi North 15.0 mph 20.7 mph N/A   Clear
2:55 PM 50.0 °F - 21.2 °F 32% 30.13 in 10.0 mi NNW 15.0 mph 21.9 mph N/A   Clear
3:15 PM 51.8 °F - 21.2 °F 30% 30.13 in 10.0 mi NW 12.7 mph 20.7 mph N/A   Clear
3:35 PM 51.8 °F - 21.2 °F 30% 30.14 in 10.0 mi NNW 15.0 mph 20.7 mph N/A   Clear
3:55 PM 51.8 °F - 24.8 °F 35% 30.14 in 10.0 mi NNW 11.5 mph 17.3 mph N/A   Clear
4:15 PM 50.0 °F - 23.0 °F 35% 30.15 in 10.0 mi North 15.0 mph - N/A   Clear
4:35 PM 46.4 °F 40.1 °F 23.0 °F 40% 30.15 in 10.0 mi North 15.0 mph - N/A   Clear
4:55 PM 44.6 °F 38.4 °F 21.2 °F 39% 30.16 in 10.0 mi NNW 12.7 mph 21.9 mph N/A   Clear
5:15 PM 44.6 °F 37.4 °F 19.4 °F 37% 30.17 in 10.0 mi North 16.1 mph 23.0 mph N/A   Clear
5:35 PM 42.8 °F 35.4 °F 23.0 °F 46% 30.18 in 10.0 mi North 15.0 mph 19.6 mph N/A   Clear
5:55 PM 42.8 °F 34.8 °F 19.4 °F 39% 30.19 in 10.0 mi North 17.3 mph 23.0 mph N/A   Clear
6:15 PM 41.0 °F 33.5 °F 21.2 °F 45% 30.20 in 10.0 mi North 13.8 mph - N/A   Clear
6:35 PM 41.0 °F 33.5 °F 23.0 °F 49% 30.20 in 10.0 mi North 13.8 mph 17.3 mph N/A   Clear
6:55 PM 37.4 °F 29.3 °F 23.0 °F 56% 30.21 in 10.0 mi North 12.7 mph 18.4 mph N/A   Clear
7:15 PM 35.6 °F 28.0 °F 23.0 °F 60% 30.22 in 10.0 mi North 10.4 mph - N/A   Clear
7:35 PM 35.6 °F 28.0 °F 23.0 °F 60% 30.24 in 10.0 mi North 10.4 mph - N/A   Clear
7:55 PM 35.6 °F 29.9 °F 24.8 °F 65% 30.24 in 10.0 mi North 6.9 mph - N/A   Clear
8:15 PM 35.6 °F 29.9 °F 26.6 °F 70% 30.25 in 10.0 mi NNE 6.9 mph - N/A   Clear
8:35 PM 35.6 °F 29.9 °F 26.6 °F 70% 30.25 in 10.0 mi NNE 6.9 mph - N/A   Clear
8:55 PM 33.8 °F 27.0 °F 24.8 °F 70% 30.26 in 10.0 mi NNE 8.1 mph - N/A   Clear
9:35 PM 32.0 °F 24.8 °F 23.0 °F 69% 30.27 in 10.0 mi NNE 8.1 mph - N/A   Scattered Clouds
9:55 PM 32.0 °F 23.6 °F 23.0 °F 69% 30.28 in 10.0 mi NNE 10.4 mph - N/A   Scattered Clouds
10:15 PM 32.0 °F 22.5 °F 23.0 °F 69% 30.28 in 10.0 mi NE 12.7 mph 18.4 mph N/A   Scattered Clouds
10:35 PM 32.0 °F 22.1 °F 23.0 °F 69% 30.28 in 10.0 mi NNE 13.8 mph 21.9 mph N/A   Scattered Clouds
10:55 PM 32.0 °F 21.6 °F 23.0 °F 69% 30.29 in 10.0 mi NE 15.0 mph 21.9 mph N/A   Scattered Clouds
11:15 PM 32.0 °F 23.6 °F 24.8 °F 75% 30.29 in 10.0 mi NNE 10.4 mph 17.3 mph N/A   Scattered Clouds
11:35 PM 32.0 °F 24.2 °F 24.8 °F 75% 30.29 in 10.0 mi ENE 9.2 mph - N/A   Mostly Cloudy
11:55 PM 32.0 °F 24.8 °F 24.8 °F 75% 30.30 in 10.0 mi NE 8.1 mph - N/A   Overcast